| time (UTC) | temp C | wind direction | speed KPH | gust KPH | rain 1hr cm | rain 24hr cm | rain mn cm | humidity % | barometer mb |
| 20260503004010 | 18 | 360 | 1.6 | 6.4 | 0.00 | 0.00 | 0.00 | 32 | 1016.7 |
| 20260503003511 | 18 | 360 | 4.8 | 8.0 | 0.00 | 0.00 | 0.00 | 32 | 1016.7 |
| 20260503003036 | 19 | 321 | 3.2 | 8.0 | 0.00 | 0.00 | 0.00 | 32 | 1016.7 |
| 20260503002509 | 18 | 243 | 3.2 | 9.7 | 0.00 | 0.00 | 0.00 | 32 | 1016.6 |
| 20260503002015 | 18 | 67 | 3.2 | 16.1 | 0.00 | 0.00 | 0.00 | 32 | 1016.7 |
| 20260503001515 | 19 | 302 | 6.4 | 16.1 | 0.00 | 0.00 | 0.00 | 31 | 1016.7 |
| 20260503001011 | 18 | 50 | 0.0 | 8.0 | 0.00 | 0.00 | 0.00 | 32 | 1016.8 |
| 20260503000511 | 18 | 50 | 1.6 | 8.0 | 0.00 | 0.00 | 0.00 | 32 | 1016.8 |
| 20260503000035 | 19 | 76 | 3.2 | 9.7 | 0.00 | 0.00 | 0.00 | 31 | 1016.9 |
| 20260502235511 | 19 | 78 | 3.2 | 12.9 | 0.00 | 0.00 | 0.00 | 31 | 1017.0 |
| 20260502235013 | 19 | 56 | 3.2 | 9.7 | 0.00 | 0.00 | 0.00 | 31 | 1017.0 |
| 20260502234533 | 19 | 63 | 4.8 | 12.9 | 0.00 | 0.00 | 0.00 | 31 | 1017.1 |
| 20260502234011 | 18 | 360 | 6.4 | 12.9 | 0.00 | 0.00 | 0.00 | 32 | 1017.0 |
| 20260502233512 | 18 | 329 | 3.2 | 8.0 | 0.00 | 0.00 | 0.00 | 32 | 1017.0 |
| 20260502233032 | 18 | 69 | 3.2 | 9.7 | 0.00 | 0.00 | 0.00 | 32 | 1017.2 |
| 20260502232512 | 18 | 30 | 6.4 | 9.7 | 0.00 | 0.00 | 0.00 | 32 | 1017.1 |
| 20260502232012 | 18 | 352 | 4.8 | 12.9 | 0.00 | 0.00 | 0.00 | 33 | 1017.3 |
| 20260502231523 | 18 | 347 | 8.0 | 16.1 | 0.00 | 0.00 | 0.00 | 33 | 1017.3 |
| 20260502231013 | 18 | 9 | 12.9 | 16.1 | 0.00 | 0.00 | 0.00 | 33 | 1017.3 |
| 20260502230511 | 18 | 350 | 3.2 | 17.7 | 0.00 | 0.00 | 0.00 | 33 | 1017.5 |
| 20260502230035 | 18 | 281 | 6.4 | 17.7 | 0.00 | 0.00 | 0.00 | 33 | 1017.7 |
| 20260502225510 | 18 | 360 | 6.4 | 16.1 | 0.00 | 0.00 | 0.00 | 33 | 1017.5 |
| 20260502225011 | 18 | 331 | 6.4 | 19.3 | 0.00 | 0.00 | 0.00 | 32 | 1017.6 |
| 20260502224538 | 18 | 314 | 14.5 | 19.3 | 0.00 | 0.00 | 0.00 | 32 | 1017.7 |
| 20260502224011 | 18 | 321 | 4.8 | 17.7 | 0.00 | 0.00 | 0.00 | 32 | 1017.9 |
| 20260502223511 | 18 | 26 | 11.3 | 20.9 | 0.00 | 0.00 | 0.00 | 32 | 1017.9 |
| 20260502223031 | 18 | 22 | 8.0 | 20.9 | 0.00 | 0.00 | 0.00 | 32 | 1017.9 |
| 20260502222511 | 19 | 335 | 9.7 | 19.3 | 0.00 | 0.00 | 0.00 | 31 | 1018.0 |
| 20260502222011 | 18 | 33 | 6.4 | 20.9 | 0.00 | 0.00 | 0.00 | 32 | 1018.0 |
| 20260502221535 | 18 | 360 | 8.0 | 22.5 | 0.00 | 0.00 | 0.00 | 32 | 1018.0 |
| 20260502221013 | 19 | 344 | 16.1 | 22.5 | 0.00 | 0.00 | 0.00 | 31 | 1018.0 |
| 20260502220514 | 19 | 344 | 14.5 | 22.5 | 0.00 | 0.00 | 0.00 | 31 | 1018.2 |
| 20260502220038 | 19 | 346 | 14.5 | 27.4 | 0.00 | 0.00 | 0.00 | 31 | 1018.2 |
| 20260502215510 | 20 | 342 | 16.1 | 24.1 | 0.00 | 0.00 | 0.00 | 31 | 1018.3 |
| 20260502215012 | 19 | 340 | 14.5 | 24.1 | 0.00 | 0.00 | 0.00 | 32 | 1018.4 |
| 20260502214610 | 18 | 277 | 9.7 | 16.1 | 0.00 | 0.00 | 0.00 | 32 | 1018.4 |
| 20260502214011 | 18 | 292 | 6.4 | 16.1 | 0.00 | 0.00 | 0.00 | 32 | 1018.4 |
| 20260502213513 | 18 | 262 | 6.4 | 20.9 | 0.00 | 0.00 | 0.00 | 31 | 1018.6 |
| 20260502213016 | 19 | 263 | 12.9 | 20.9 | 0.00 | 0.00 | 0.00 | 30 | 1018.6 |
| 20260502212511 | 20 | 286 | 9.7 | 24.1 | 0.00 | 0.00 | 0.00 | 30 | 1018.7 |
| 20260502212011 | 20 | 265 | 17.7 | 24.1 | 0.00 | 0.00 | 0.00 | 30 | 1018.7 |
| 20260502211535 | 19 | 21 | 4.8 | 19.3 | 0.00 | 0.00 | 0.00 | 31 | 1018.7 |
| 20260502211013 | 19 | 348 | 9.7 | 29.0 | 0.00 | 0.00 | 0.00 | 31 | 1018.9 |
| 20260502210513 | 19 | 336 | 12.9 | 29.0 | 0.00 | 0.00 | 0.00 | 31 | 1018.9 |
| 20260502210046 | 19 | 296 | 16.1 | 24.1 | 0.00 | 0.00 | 0.00 | 30 | 1018.9 |
| 20260502205509 | 18 | 343 | 11.3 | 17.7 | 0.00 | 0.00 | 0.00 | 32 | 1018.9 |
| 20260502205016 | 18 | 322 | 1.6 | 24.1 | 0.00 | 0.00 | 0.00 | 32 | 1019.1 |
| 20260502204533 | 18 | 303 | 14.5 | 24.1 | 0.00 | 0.00 | 0.00 | 32 | 1019.1 |
| 20260502204010 | 18 | 348 | 12.9 | 22.5 | 0.00 | 0.00 | 0.00 | 32 | 1019.1 |
| 20260502203510 | 18 | 14 | 12.9 | 20.9 | 0.00 | 0.00 | 0.00 | 32 | 1019.3 |
| 20260502203020 | 18 | 313 | 11.3 | 20.9 | 0.00 | 0.00 | 0.00 | 33 | 1019.3 |
| 20260502202510 | 18 | 269 | 12.9 | 24.1 | 0.00 | 0.00 | 0.00 | 33 | 1019.3 |
| 20260502202014 | 18 | 261 | 9.7 | 24.1 | 0.00 | 0.00 | 0.00 | 32 | 1019.5 |
| 20260502201541 | 18 | 295 | 8.0 | 14.5 | 0.00 | 0.00 | 0.00 | 33 | 1019.6 |
| 20260502201014 | 18 | 338 | 8.0 | 14.5 | 0.00 | 0.00 | 0.00 | 33 | 1019.3 |
| 20260502200511 | 17 | 249 | 9.7 | 14.5 | 0.00 | 0.00 | 0.00 | 34 | 1019.6 |
| 20260502200033 | 17 | 339 | 8.0 | 14.5 | 0.00 | 0.00 | 0.00 | 34 | 1019.7 |
| 20260502195513 | 17 | 267 | 8.0 | 20.9 | 0.00 | 0.00 | 0.00 | 35 | 1019.7 |
| 20260502195012 | 17 | 293 | 12.9 | 24.1 | 0.00 | 0.00 | 0.00 | 36 | 1019.7 |
| 20260502194537 | 17 | 323 | 9.7 | 24.1 | 0.00 | 0.00 | 0.00 | 36 | 1019.9 |
| 20260502194011 | 17 | 341 | 6.4 | 20.9 | 0.00 | 0.00 | 0.00 | 36 | 1019.8 |
| 20260502193513 | 17 | 326 | 12.9 | 20.9 | 0.00 | 0.00 | 0.00 | 36 | 1019.9 |
| 20260502193023 | 17 | 304 | 11.3 | 22.5 | 0.00 | 0.00 | 0.00 | 37 | 1019.8 |
| 20260502192512 | 17 | 333 | 12.9 | 22.5 | 0.00 | 0.00 | 0.00 | 36 | 1019.9 |
| 20260502192013 | 17 | 346 | 16.1 | 22.5 | 0.00 | 0.00 | 0.00 | 35 | 1020.0 |
| 20260502191537 | 17 | 303 | 12.9 | 22.5 | 0.00 | 0.00 | 0.00 | 36 | 1020.1 |
| 20260502191012 | 16 | 352 | 14.5 | 22.5 | 0.00 | 0.00 | 0.00 | 36 | 1020.1 |
| 20260502190511 | 16 | 327 | 11.3 | 19.3 | 0.00 | 0.00 | 0.00 | 38 | 1020.2 |
| 20260502190023 | 16 | 348 | 11.3 | 19.3 | 0.00 | 0.00 | 0.00 | 38 | 1020.3 |
| 20260502185510 | 16 | 304 | 12.9 | 20.9 | 0.00 | 0.00 | 0.00 | 37 | 1020.3 |
| 20260502185011 | 16 | 319 | 14.5 | 20.9 | 0.00 | 0.00 | 0.00 | 37 | 1020.2 |
| 20260502184535 | 16 | 303 | 9.7 | 24.1 | 0.00 | 0.00 | 0.00 | 37 | 1020.2 |
| 20260502184018 | 16 | 314 | 17.7 | 24.1 | 0.00 | 0.00 | 0.00 | 37 | 1020.2 |
| 20260502183511 | 16 | 333 | 12.9 | 20.9 | 0.00 | 0.00 | 0.00 | 38 | 1020.3 |
| 20260502183058 | 16 | 344 | 12.9 | 22.5 | 0.00 | 0.00 | 0.00 | 38 | 1020.3 |
| 20260502182514 | 16 | 335 | 11.3 | 22.5 | 0.00 | 0.00 | 0.00 | 38 | 1020.4 |
| 20260502182013 | 16 | 335 | 9.7 | 20.9 | 0.00 | 0.00 | 0.00 | 38 | 1020.5 |
| 20260502181530 | 16 | 341 | 14.5 | 19.3 | 0.00 | 0.00 | 0.00 | 37 | 1020.4 |
| 20260502181013 | 16 | 346 | 11.3 | 20.9 | 0.00 | 0.00 | 0.00 | 37 | 1020.5 |
| 20260502180512 | 16 | 22 | 12.9 | 20.9 | 0.00 | 0.00 | 0.00 | 37 | 1020.4 |
| 20260502170511 | 16 | 348 | 12.9 | 22.5 | 0.00 | 0.00 | 0.00 | 39 | 1020.4 |
| 20260502164014 | 16 | 279 | 16.1 | 24.1 | 0.00 | 0.00 | 0.00 | 39 | 1020.5 |
| 20260502163511 | 16 | 316 | 14.5 | 22.5 | 0.00 | 0.00 | 0.00 | 40 | 1020.5 |
| 20260502163035 | 16 | 333 | 17.7 | 22.5 | 0.00 | 0.00 | 0.00 | 40 | 1020.6 |
| 20260502162510 | 16 | 342 | 14.5 | 27.4 | 0.00 | 0.00 | 0.00 | 40 | 1020.5 |
| 20260502162014 | 16 | 300 | 16.1 | 27.4 | 0.00 | 0.00 | 0.00 | 40 | 1020.4 |
| 20260502161525 | 16 | 321 | 14.5 | 25.7 | 0.00 | 0.00 | 0.00 | 40 | 1020.4 |
| 20260502161013 | 16 | 321 | 17.7 | 25.7 | 0.00 | 0.00 | 0.00 | 40 | 1020.6 |
| 20260502160514 | 16 | 317 | 16.1 | 24.1 | 0.00 | 0.00 | 0.00 | 40 | 1020.4 |
| 20260502152011 | 15 | 15 | 8.0 | 12.9 | 0.00 | 0.00 | 0.00 | 40 | 1020.1 |
| 20260502151535 | 15 | 331 | 3.2 | 17.7 | 0.00 | 0.00 | 0.00 | 41 | 1020.1 |
| 20260502151016 | 15 | 17 | 11.3 | 17.7 | 0.00 | 0.00 | 0.00 | 41 | 1020.0 |
| 20260502150514 | 15 | 340 | 6.4 | 14.5 | 0.00 | 0.00 | 0.00 | 41 | 1020.0 |
| 20260502130514 | 8 | 294 | 8.0 | 12.9 | 0.00 | 0.00 | 0.00 | 60 | 1019.5 |
| 20260502123512 | 6 | 296 | 4.8 | 9.7 | 0.00 | 0.00 | 0.00 | 65 | 1019.4 |
| 20260502123041 | 6 | 300 | 4.8 | 6.4 | 0.00 | 0.00 | 0.00 | 65 | 1019.4 |
| 20260502122514 | 6 | 327 | 1.6 | 6.4 | 0.00 | 0.00 | 0.00 | 64 | 1019.2 |
| 20260502122012 | 6 | 327 | 3.2 | 8.0 | 0.00 | 0.00 | 0.00 | 65 | 1019.2 |
| 20260502121533 | 6 | 323 | 4.8 | 8.0 | 0.00 | 0.00 | 0.00 | 65 | 1019.2 |
| 20260502121010 | 5 | 346 | 4.8 | 8.0 | 0.00 | 0.00 | 0.00 | 65 | 1019.1 |
| 20260502120508 | 5 | 326 | 4.8 | 8.0 | 0.00 | 0.00 | 0.00 | 64 | 1019.1 |
| 20260502115513 | 6 | 317 | 6.4 | 14.5 | 0.00 | 0.00 | 0.00 | 62 | 1019.0 |
| 20260502115014 | 6 | 336 | 9.7 | 14.5 | 0.00 | 0.00 | 0.00 | 62 | 1019.1 |
| 20260502114621 | 6 | 322 | 9.7 | 14.5 | 0.00 | 0.00 | 0.00 | 64 | 1018.9 |
| 20260502114014 | 5 | 328 | 8.0 | 14.5 | 0.00 | 0.00 | 0.00 | 66 | 1018.7 |
| 20260502113510 | 5 | 352 | 3.2 | 6.4 | 0.00 | 0.00 | 0.00 | 64 | 1018.6 |
| 20260502113050 | 5 | 352 | 3.2 | 6.4 | 0.00 | 0.00 | 0.00 | 63 | 1018.5 |
| 20260502112516 | 5 | 352 | 4.8 | 8.0 | 0.00 | 0.00 | 0.00 | 62 | 1018.4 |
| 20260502112013 | 6 | 351 | 4.8 | 9.7 | 0.00 | 0.00 | 0.00 | 62 | 1018.4 |
| 20260502111550 | 5 | 344 | 8.0 | 12.9 | 0.00 | 0.00 | 0.00 | 63 | 1018.3 |
| 20260502111017 | 5 | 325 | 8.0 | 12.9 | 0.00 | 0.00 | 0.00 | 63 | 1018.3 |
| 20260502110518 | 5 | 342 | 6.4 | 9.7 | 0.00 | 0.00 | 0.00 | 63 | 1018.3 |
| 20260502110046 | 5 | 328 | 6.4 | 9.7 | 0.00 | 0.00 | 0.00 | 61 | 1018.2 |
| 20260502105517 | 5 | 329 | 6.4 | 9.7 | 0.00 | 0.00 | 0.00 | 62 | 1018.2 |
| 20260502105014 | 5 | 341 | 6.4 | 9.7 | 0.00 | 0.00 | 0.00 | 62 | 1018.0 |
| 20260502104526 | 5 | 321 | 6.4 | 9.7 | 0.00 | 0.00 | 0.00 | 61 | 1018.0 |
| 20260502104017 | 5 | 329 | 6.4 | 9.7 | 0.00 | 0.00 | 0.00 | 59 | 1017.9 |
| 20260502103516 | 6 | 324 | 4.8 | 9.7 | 0.00 | 0.00 | 0.00 | 58 | 1017.8 |
| 20260502103047 | 6 | 350 | 6.4 | 12.9 | 0.00 | 0.00 | 0.00 | 58 | 1017.8 |
| 20260502102518 | 6 | 349 | 8.0 | 12.9 | 0.00 | 0.00 | 0.00 | 58 | 1017.7 |
| 20260502102017 | 6 | 340 | 8.0 | 9.7 | 0.00 | 0.00 | 0.00 | 58 | 1017.8 |
| 20260502101604 | 6 | 337 | 8.0 | 9.7 | 0.00 | 0.00 | 0.00 | 58 | 1017.7 |
| 20260502101019 | 6 | 340 | 6.4 | 9.7 | 0.00 | 0.00 | 0.00 | 58 | 1017.6 |
| 20260502100516 | 6 | 330 | 8.0 | 12.9 | 0.00 | 0.00 | 0.00 | 57 | 1017.5 |
| 20260502091512 | 7 | 304 | 8.0 | 12.9 | 0.00 | 0.00 | 0.00 | 53 | 1017.2 |
| 20260502091014 | 7 | 313 | 6.4 | 11.3 | 0.00 | 0.00 | 0.00 | 53 | 1017.2 |
| 20260502090510 | 7 | 311 | 8.0 | 12.9 | 0.00 | 0.00 | 0.00 | 53 | 1017.2 |
| 20260502071535 | 6 | 242 | 6.4 | 11.3 | 0.00 | 0.00 | 0.00 | 57 | 1015.4 |
| 20260502071005 | 6 | 259 | 4.8 | 9.7 | 0.00 | 0.00 | 0.00 | 55 | 1015.5 |
| 20260502070513 | 6 | 240 | 4.8 | 8.0 | 0.00 | 0.00 | 0.00 | 55 | 1015.6 |
| 20260502070035 | 6 | 250 | 6.4 | 11.3 | 0.00 | 0.00 | 0.00 | 55 | 1015.5 |
| 20260502065515 | 6 | 254 | 6.4 | 11.3 | 0.00 | 0.00 | 0.00 | 55 | 1015.5 |
| 20260502065011 | 6 | 251 | 6.4 | 11.3 | 0.00 | 0.00 | 0.00 | 54 | 1015.7 |
| 20260502064605 | 6 | 246 | 6.4 | 11.3 | 0.00 | 0.00 | 0.00 | 54 | 1015.7 |
| 20260502064011 | 7 | 250 | 6.4 | 11.3 | 0.00 | 0.00 | 0.00 | 52 | 1015.7 |
| 20260502063512 | 7 | 248 | 8.0 | 14.5 | 0.00 | 0.00 | 0.00 | 52 | 1015.5 |
| 20260502063035 | 6 | 254 | 11.3 | 14.5 | 0.00 | 0.00 | 0.00 | 51 | 1015.5 |
| 20260502062511 | 6 | 251 | 9.7 | 12.9 | 0.00 | 0.00 | 0.00 | 51 | 1015.4 |
| 20260502062013 | 6 | 250 | 8.0 | 12.9 | 0.00 | 0.00 | 0.00 | 51 | 1015.4 |
| 20260502061535 | 6 | 244 | 8.0 | 12.9 | 0.00 | 0.00 | 0.00 | 52 | 1015.3 |
| 20260502061009 | 6 | 245 | 4.8 | 8.0 | 0.00 | 0.00 | 0.00 | 51 | 1015.4 |
| 20260502060511 | 6 | 241 | 4.8 | 8.0 | 0.00 | 0.00 | 0.00 | 51 | 1015.4 |
| 20260502060056 | 6 | 243 | 3.2 | 4.8 | 0.00 | 0.00 | 0.00 | 49 | 1015.4 |
| 20260502055513 | 6 | 259 | 1.6 | 6.4 | 0.00 | 0.00 | 0.00 | 48 | 1015.5 |
| 20260502055014 | 7 | 259 | 3.2 | 9.7 | 0.00 | 0.00 | 0.00 | 48 | 1015.6 |
| 20260502054534 | 7 | 263 | 8.0 | 9.7 | 0.00 | 0.00 | 0.00 | 47 | 1015.6 |
| 20260502054014 | 7 | 259 | 4.8 | 9.7 | 0.00 | 0.00 | 0.00 | 44 | 1015.5 |
| 20260502053516 | 7 | 263 | 4.8 | 9.7 | 0.00 | 0.00 | 0.00 | 45 | 1015.5 |
| 20260502053032 | 7 | 265 | 3.2 | 6.4 | 0.00 | 0.00 | 0.00 | 44 | 1015.4 |
| 20260502052510 | 7 | 265 | 1.6 | 4.8 | 0.00 | 0.00 | 0.00 | 44 | 1015.4 |
| 20260502052011 | 7 | 265 | 3.2 | 6.4 | 0.00 | 0.00 | 0.00 | 43 | 1015.3 |
| 20260502051538 | 7 | 265 | 3.2 | 6.4 | 0.00 | 0.00 | 0.00 | 42 | 1015.3 |
| 20260502051011 | 8 | 265 | 3.2 | 4.8 | 0.00 | 0.00 | 0.00 | 39 | 1015.2 |
| 20260502050513 | 8 | 265 | 0.0 | 9.7 | 0.00 | 0.00 | 0.00 | 40 | 1015.2 |
| 20260502050034 | 8 | 265 | 3.2 | 9.7 | 0.00 | 0.00 | 0.00 | 41 | 1015.2 |
| 20260502045513 | 8 | 228 | 1.6 | 4.8 | 0.00 | 0.00 | 0.00 | 41 | 1015.3 |
| 20260502045010 | 8 | 228 | 1.6 | 4.8 | 0.00 | 0.00 | 0.00 | 41 | 1015.3 |
| 20260502044537 | 8 | 228 | 1.6 | 4.8 | 0.00 | 0.00 | 0.00 | 41 | 1015.3 |
| 20260502044012 | 8 | 187 | 3.2 | 4.8 | 0.00 | 0.00 | 0.00 | 39 | 1015.4 |
| 20260502043517 | 9 | 145 | 0.0 | 3.2 | 0.00 | 0.00 | 0.00 | 38 | 1015.2 |
| 20260502043100 | 9 | 145 | 1.6 | 3.2 | 0.00 | 0.00 | 0.00 | 39 | 1015.2 |
| 20260502042512 | 9 | 145 | 1.6 | 3.2 | 0.00 | 0.00 | 0.00 | 38 | 1015.1 |
| 20260502042015 | 9 | 145 | 0.0 | 3.2 | 0.00 | 0.00 | 0.00 | 38 | 1015.1 |
| 20260502041548 | 9 | 145 | 1.6 | 3.2 | 0.00 | 0.00 | 0.00 | 37 | 1015.3 |
| 20260502041010 | 10 | 145 | 1.6 | 3.2 | 0.00 | 0.00 | 0.00 | 37 | 1015.1 |
| 20260502040510 | 10 | 145 | 1.6 | 4.8 | 0.00 | 0.00 | 0.00 | 37 | 1015.2 |
| 20260502040036 | 11 | 145 | 1.6 | 6.4 | 0.00 | 0.00 | 0.00 | 35 | 1015.3 |
| 20260502035516 | 11 | 145 | 3.2 | 6.4 | 0.00 | 0.00 | 0.00 | 34 | 1015.1 |
| 20260502035014 | 11 | 284 | 3.2 | 6.4 | 0.00 | 0.00 | 0.00 | 34 | 1015.1 |
| 20260502034517 | 11 | 284 | 4.8 | 6.4 | 0.00 | 0.00 | 0.00 | 33 | 1015.0 |
| 20260502034013 | 12 | 334 | 1.6 | 6.4 | 0.00 | 0.00 | 0.00 | 32 | 1015.0 |
| 20260502033510 | 12 | 334 | 4.8 | 6.4 | 0.00 | 0.00 | 0.00 | 32 | 1014.9 |
| 20260502033038 | 12 | 334 | 4.8 | 6.4 | 0.00 | 0.00 | 0.00 | 31 | 1014.8 |
| 20260502032512 | 12 | 334 | 3.2 | 4.8 | 0.00 | 0.00 | 0.00 | 31 | 1014.8 |
| 20260502032011 | 12 | 334 | 3.2 | 6.4 | 0.00 | 0.00 | 0.00 | 31 | 1014.6 |
| 20260502031537 | 12 | 334 | 4.8 | 6.4 | 0.00 | 0.00 | 0.00 | 30 | 1014.6 |
| 20260502031013 | 12 | 334 | 3.2 | 6.4 | 0.00 | 0.00 | 0.00 | 30 | 1014.6 |
| 20260502030513 | 12 | 334 | 3.2 | 4.8 | 0.00 | 0.00 | 0.00 | 30 | 1014.4 |
| 20260502030046 | 12 | 334 | 3.2 | 4.8 | 0.00 | 0.00 | 0.00 | 30 | 1014.4 |
| 20260502025513 | 12 | 334 | 1.6 | 4.8 | 0.00 | 0.00 | 0.00 | 29 | 1014.4 |
| 20260502025013 | 13 | 334 | 3.2 | 4.8 | 0.00 | 0.00 | 0.00 | 28 | 1014.5 |
| 20260502024536 | 13 | 334 | 3.2 | 4.8 | 0.00 | 0.00 | 0.00 | 27 | 1014.5 |
| 20260502024013 | 14 | 334 | 3.2 | 4.8 | 0.00 | 0.00 | 0.00 | 27 | 1014.5 |
| 20260502023515 | 15 | 334 | 1.6 | 3.2 | 0.00 | 0.00 | 0.00 | 27 | 1014.4 |
| 20260502023039 | 15 | 334 | 1.6 | 3.2 | 0.00 | 0.00 | 0.00 | 26 | 1014.4 |
| 20260502022514 | 15 | 334 | 1.6 | 3.2 | 0.00 | 0.00 | 0.00 | 26 | 1014.3 |
| 20260502022015 | 16 | 334 | 1.6 | 6.4 | 0.00 | 0.00 | 0.00 | 25 | 1014.3 |
| 20260502021541 | 16 | 334 | 3.2 | 6.4 | 0.00 | 0.00 | 0.00 | 24 | 1014.2 |
| 20260502021013 | 17 | 334 | 4.8 | 6.4 | 0.00 | 0.00 | 0.00 | 23 | 1014.4 |
| 20260502020512 | 17 | 334 | 4.8 | 6.4 | 0.00 | 0.00 | 0.00 | 23 | 1014.4 |
| 20260502020037 | 18 | 334 | 3.2 | 4.8 | 0.00 | 0.00 | 0.00 | 22 | 1014.4 |
| 20260502015514 | 18 | 334 | 3.2 | 6.4 | 0.00 | 0.00 | 0.00 | 22 | 1014.4 |
| 20260502015012 | 19 | 333 | 3.2 | 8.0 | 0.00 | 0.00 | 0.00 | 21 | 1014.2 |
| 20260502014540 | 20 | 332 | 4.8 | 8.0 | 0.00 | 0.00 | 0.00 | 20 | 1014.4 |
| 20260502014012 | 20 | 333 | 4.8 | 8.0 | 0.00 | 0.00 | 0.00 | 20 | 1014.6 |
| 20260502013507 | 21 | 360 | 3.2 | 9.7 | 0.00 | 0.00 | 0.00 | 19 | 1014.6 |
| 20260502013058 | 21 | 360 | 6.4 | 12.9 | 0.00 | 0.00 | 0.00 | 18 | 1014.5 |
| 20260502012512 | 22 | 360 | 8.0 | 12.9 | 0.00 | 0.00 | 0.00 | 17 | 1014.5 |
| 20260502012016 | 22 | 314 | 6.4 | 12.9 | 0.00 | 0.00 | 0.00 | 17 | 1014.5 |
| 20260502011542 | 22 | 308 | 8.0 | 14.5 | 0.00 | 0.00 | 0.00 | 17 | 1014.8 |
| 20260502011013 | 23 | 305 | 9.7 | 17.7 | 0.00 | 0.00 | 0.00 | 17 | 1014.7 |
| 20260502010512 | 23 | 304 | 9.7 | 22.5 | 0.00 | 0.00 | 0.00 | 17 | 1014.7 |
| 20260502010039 | 23 | 296 | 16.1 | 22.5 | 0.00 | 0.00 | 0.00 | 16 | 1014.6 |
| 20260502005511 | 23 | 317 | 12.9 | 20.9 | 0.00 | 0.00 | 0.00 | 16 | 1014.9 |
| 20260502005011 | 23 | 283 | 12.9 | 20.9 | 0.00 | 0.00 | 0.00 | 16 | 1014.8 |
| 20260502004546 | 23 | 323 | 11.3 | 20.9 | 0.00 | 0.00 | 0.00 | 16 | 1014.9 |